Tracking 29892 objects as of 21-Nov-2024
HD Live streaming from Space Station
objects crossing your sky now

STARLINK-2574

Track STARLINK-2574 now!
10-day predictions
STARLINK-2574 is classified as:


NORAD ID: 48395
Int'l Code: 2021-038AU
Perigee: 553.1 km
Apogee: 555.5 km
Inclination: 53.1 °
Period: 95.6 minutes
Semi major axis: 6925 km
RCS: Unknown
Launch date: May 4, 2021
Source: United States (US)
Launch site: AIR FORCE EASTERN TEST RANGE (AFETR)
Your satellite tracking list
Your tracking list is empty




NASA's NSSDC Master Catalog

Two Line Element Set (TLE):
1 48395U 21038AU  24325.36009812  .00001831  00000-0  14174-3 0  9991
2 48395  53.0541 311.5857 0001723 105.4148 254.7031 15.06409076197024
Source of the keplerian elements: AFSPC